{"data":{"norad_id":85015,"intl_designator":"","name":"UNKNOWN","alt_names":[],"object_type":"UNKNOWN","status":"UNKNOWN","operator":null,"country":null,"launch_date":null,"launch_site_code":null,"launch_vehicle":null,"mission":null,"orbit_class":"UNKNOWN","rcs_meters":null,"size_class":null,"mass_kg":null,"dimensions":null,"purposes":[],"wikipedia_slug":null,"has_3d_model":false,"image_url":null,"decayed_at":null,"tle_current":{"epoch":"2026-09-18T14:55:51.373632Z","epoch_age_seconds":180477,"freshness":"STALE","line1":"1 85015U          26261.62212238  .00000333  00000+0  71412-4 0  9999","line2":"2 85015  74.0484 222.4841 0014313  51.4671 308.7776 14.62571533683526","mean_motion":14.62571533,"eccentricity":0.0014313,"inclination_deg":74.0484,"raan_deg":222.4841,"arg_perigee_deg":51.4671,"mean_anomaly_deg":308.7776,"bstar":7.1412e-5,"rev_number":68352,"period_min":98.45672280017,"perigee_km":674.77361005962,"apogee_km":694.99221085529,"semimajor_km":7063.0199104575,"source":"CELESTRAK","updated_at":"2026-09-20T09:00:32.444971Z"}}}